Regional Weather Roundup
Issued by NWS

Home | Current Version | Previous Version | Graphics & Text | Print | Product List | Glossary Off
Versions: 1 2 3 4 5 6 7 8 9 10 11 12 13 14 15 16 17 18 19 20 21 22 23 24 25 26 27 28 29 30 31 32 33 34 35 36 37 38 39 40 41 42 43 44 45 46 47 48 49 50

000
ASUS43 KMKX 221825
RWRWI

WISCONSIN REGIONAL WEATHER ROUNDUP
NATIONAL WEATHER SERVICE MILWAUKEE/SULLIVAN WI
100 PM CDT WED OCT 22 2014

NOTE: "FAIR" INDICATES FEW OR NO CLOUDS BELOW 12,000 FEET WITH NO
SIGNIFICANT WEATHER AND/OR OBSTRUCTIONS TO VISIBILITY.

WIZ001-002-006>008-014>016-023>028-221900-
NORTHWEST WISCONSIN

CITY           SKY/WX    TMP DP  RH WIND       PRES   REMARKS
SUPERIOR ARPT  FAIR      59  40  49 S9        30.14F
6HR MIN TEMP:  27; 6HR MAX TEMP:  59;

ASHLAND        FAIR      56  36  47 S9        30.21F
6HR MIN TEMP:  26; 6HR MAX TEMP:  57;

HAYWARD        FAIR      52  37  56 S15G23    30.20F
6HR MIN TEMP:  38; 6HR MAX TEMP:  52;

SIREN          PTSUNNY   54  38  54 S14         N/A
6HR MIN TEMP:  40; 6HR MAX TEMP:  55;

CUMBERLAND     FAIR      52  36  54 SE14G20   30.20F
RICE LAKE      FAIR      53  39  59 SE14      30.22F
6HR MIN TEMP:  36; 6HR MAX TEMP:  53;

CHETEK         FAIR      53  40  61 SE13G18   30.22F
6HR MIN TEMP:  35; 6HR MAX TEMP:  53;

LADYSMITH      FAIR      52  37  57 S10       30.25F
6HR MIN TEMP:  32; 6HR MAX TEMP:  52;

EAU CLAIRE     FAIR      55  36  48 S16       30.23F
6HR MIN TEMP:  35; 6HR MAX TEMP:  55;

MENOMONIE      FAIR      56  38  51 SE16      30.22F
6HR MIN TEMP:  34; 6HR MAX TEMP:  56;

NEW RICHMOND   FAIR      55  38  53 S15       30.17F
6HR MIN TEMP:  38; 6HR MAX TEMP:  55;

OSCEOLA        CLOUDY    54  40  59 SE14      30.19F
6HR MIN TEMP:  39; 6HR MAX TEMP:  55;

$$

WIZ003>005-009-010-017-018-221900-
NORTH CENTRAL WISCONSIN

CITY           SKY/WX    TMP DP  RH WIND       PRES   REMARKS
MANITOWISH WTR SUNNY     47  30  51 S10G17    30.24F
6HR MIN TEMP:  31; 6HR MAX TEMP:  50;

ARBOR VITAE    SUNNY     52  28  40 S12       30.25F
6HR MIN TEMP:  33; 6HR MAX TEMP:  52;

WOODRUFF       SUNNY     52  28  40 S12       30.25F
6HR MIN TEMP:  33; 6HR MAX TEMP:  52;

RHINELANDER    SUNNY     50  29  44 S8        30.28F
EAGLE RIVER    MOSUNNY   50  26  39 S8        30.26F
6HR MIN TEMP:  29; 6HR MAX TEMP:  50;

LAND O LAKES   FAIR      51  29  43 S9        30.27F
6HR MIN TEMP:  24; 6HR MAX TEMP:  51;

PHILLIPS       FAIR      51  31  45 S14       30.24F
6HR MIN TEMP:  30; 6HR MAX TEMP:  51;

TOMAHAWK       SUNNY     51  32  47 SE3       30.28F
6HR MIN TEMP:  26; 6HR MAX TEMP:  51;

MEDFORD        FAIR      49  33  55 SE10      30.27F
6HR MIN TEMP:  32; 6HR MAX TEMP:  49;

MERRILL        FAIR      51  33  50 S7        30.29F
6HR MIN TEMP:  23; 6HR MAX TEMP:  51;

$$

WIZ029-030-035-036-043>047-221900-
CENTRAL WISCONSIN

CITY           SKY/WX    TMP DP  RH WIND       PRES   REMARKS
WAUSAU         FAIR      52  31  44 SE10      30.29F
6HR MIN TEMP:  29; 6HR MAX TEMP:  52;

MOSINEE        SUNNY     50  36  57 SE9       30.31F
MARSHFIELD     FAIR      52  36  54 SE9       30.29F
6HR MIN TEMP:  29; 6HR MAX TEMP:  52;

STEVENS POINT  FAIR      49  34  56 SE10      30.31F
6HR MIN TEMP:  24; 6HR MAX TEMP:  49; 6HR PCP:  0.02;

WAUPACA        MOSUNNY   54  38  55 SE10      30.34F
6HR MIN TEMP:  28; 6HR MAX TEMP:  54;

WAUTOMA        CLOUDY    52  38  58 SE8       30.33F
6HR MIN TEMP:  24; 6HR MAX TEMP:  52;

WISC RAPIDS    FAIR      53  36  52 SE8G16    30.32F
6HR MIN TEMP:  27; 6HR MAX TEMP:  53;

CAMP DOUGLAS   MOSUNNY   54  39  58 SE10      30.30F
$$

WIZ011>013-019>022-031-037>040-048>050-221900-
NORTHEAST WISCONSIN

CITY           SKY/WX    TMP DP  RH WIND       PRES   REMARKS
ANTIGO         MOSUNNY   48  33  55 S9        30.31F
6HR MIN TEMP:  31; 6HR MAX TEMP:  48;

SHAWANO        SUNNY     53  37  55 SE7       30.34F
6HR MIN TEMP:  31; 6HR MAX TEMP:  53;

OCONTO         SUNNY     49  30  48 SE6       30.36F
6HR MIN TEMP:  26; 6HR MAX TEMP:  49;

STURGEON BAY   SUNNY     46  36  66 E6        30.36F
6HR MIN TEMP:  34; 6HR MAX TEMP:  46;

GREEN BAY      SUNNY     51  38  60 VRB5      30.35F
6HR MIN TEMP:  30; 6HR MAX TEMP:  51;

MANITOWOC      SUNNY     48  38  68 SE7       30.37F
6HR MIN TEMP:  28; 6HR MAX TEMP:  49;

APPLETON       MOSUNNY   50  36  57 SE8       30.34F
CLINTONVILLE   SUNNY     52  36  54 SE8       30.34F
OSHKOSH        SUNNY     52  39  61 SE6       30.34F
6HR MIN TEMP:  30; 6HR MAX TEMP:  53;

$$

WIZ032>034-041-042-053>061-221900-
SOUTHWEST WISCONSIN

CITY           SKY/WX    TMP DP  RH WIND       PRES   REMARKS
LA CROSSE      FAIR      55  37  50 S9        30.27F
6HR MIN TEMP:  35; 6HR MAX TEMP:  56;

SPARTA         FAIR      56  34  44 SE8       30.28F
6HR MIN TEMP:  26; 6HR MAX TEMP:  56;

VIROQUA        FAIR      54  38  54 SE7       30.27F
6HR MIN TEMP:  34; 6HR MAX TEMP:  54;

BOSCOBEL       FAIR      57  39  51 S8        30.30F
6HR MIN TEMP:  33; 6HR MAX TEMP:  57;

PRAIRIE DU CHI FAIR      54  38  54 SE5       30.28F
6HR MIN TEMP:  33; 6HR MAX TEMP:  54;

PLATTEVILLE    FAIR      55  40  58 SE9       30.31F
6HR MIN TEMP:  34; 6HR MAX TEMP:  55;

$$

WIZ056-057-062-063-064-067-068-221900-
SOUTH CENTRAL WISCONSIN

CITY           SKY/WX    TMP DP  RH WIND       PRES   REMARKS
REEDSBURG      FAIR      52  40  61 S8        30.30F
6HR MIN TEMP:  26; 6HR MAX TEMP:  53;

BARABOO/DELLS  FAIR      53  36  52 S7        30.31F
6HR MIN TEMP:  26; 6HR MAX TEMP:  53;

LONE ROCK      FAIR      59  38  45 S7        30.31F
6HR MIN TEMP:  31; 6HR MAX TEMP:  59;

MINERAL POINT  FAIR      55  37  50 SE7       30.30F
MADISON        FAIR      54  39  57 S7        30.33F
6HR MIN TEMP:  28; 6HR MAX TEMP:  54;

MIDDLETON      FAIR      56  37  49 S5        30.32F
6HR MIN TEMP:  29; 6HR MAX TEMP:  56;

WATERTOWN      MOSUNNY   54  39  56 S7        30.33F
6HR MIN TEMP:  25; 6HR MAX TEMP:  54;

MONROE         FAIR      54  39  58 S6        30.32S
JANESVILLE     SUNNY     57  37  47 S6        30.33F
$$

WIZ051-052-058>065-066-070>072-221900-
SOUTHEAST WISCONSIN

CITY           SKY/WX    TMP DP  RH WIND       PRES   REMARKS
MILWAUKEE      MOSUNNY   51  40  65 E8        30.35F
6HR MIN TEMP:  35; 6HR MAX TEMP:  52;

WAUKESHA       MOSUNNY   52  39  62 E7        30.35F
MILWAUKEE/TIMM PTSUNNY   52  37  58 SE6       30.36F
RACINE         MOSUNNY   51  39  63 SE9       30.37F
6HR MIN TEMP:  37; 6HR MAX TEMP:  52;

BURLINGTON     SUNNY     53  38  55 SE7       30.33F
6HR MIN TEMP:  24; 6HR MAX TEMP:  54;

KENOSHA        MOSUNNY   53  40  61 E7        30.35F
6HR MIN TEMP:  30; 6HR MAX TEMP:  53;

FOND DU LAC    SUNNY     54  38  54 S7        30.34F
6HR MIN TEMP:  26; 6HR MAX TEMP:  54;

SHEBOYGAN      SUNNY     51  36  56 SW5       30.36F
6HR MIN TEMP:  28; 6HR MAX TEMP:  52;

WEST BEND      SUNNY     54  37  54 E7        30.34F
JUNEAU         MOSUNNY   52  39  61 S3        30.34F
6HR MIN TEMP:  29; 6HR MAX TEMP:  52;

$$

LSZ147-162-221900-
LAKE SUPERIOR

STATION/POSITION TIME  TEMP    WIND        PRES    WAVE
                       AIR SEA DIR/SP/G            HT/PER
                 (UTC) (F)     (DEG/KT/KT) (MB)    (FT/S)
W MID LAKE BUOY  1750   45 46  140/ 10/ 12 1024.4F   2/ 4
DEVILS ISLAND    1800   50     150/ 10/ 13 1023.2F
PORT WING        1640   54     170/  8/ 12 1022.7F
SAXON HARBOR     1700   55     180/  3/ 11 1023.7F
$$

LMZ867-665-643>646-221900-
LAKE MICHIGAN

STATION/POSITION TIME  TEMP    WIND        PRES    WAVE
                       AIR SEA DIR/SP/G            HT/PER



USA.gov is the U.S. government's official web portal to all federal, state and local government web resources and services.